When you browse on this site, cookies collect data to enhance your experience and personalize the content and advertising you see.
Visit our Privacy Policy to learn more. By continuing to use the site, you agree to this use of cookies and data.
  • în România
  • Lista ţărilor
  • Pe 7 zile
  • Temperatura apei
  • Hartă satelitară
  • Meteo pe hartă
  • Widget-uri
  • user-avatar
    Intrare

    Meteo pe oră la Izimarino

    Astăzi, 22 Februarie, Vineri

    Timp Temperatura Precipitaţii Vânt Presiune Umiditate
    00:00 -5°C° 0.3 mm 6 m/s 745 mmHg 91%
    01:00 -4°C° 0.3 mm 6 m/s 745 mmHg 90%
    02:00 -4°C° 0.2 mm 6 m/s 745 mmHg 90%
    03:00 -4°C° 0.2 mm 7 m/s 745 mmHg 89%
    04:00 -2°C° 0 mm 4 m/s 745 mmHg 91%
    05:00 -4°C° 0 mm 5 m/s 744 mmHg 90%
    06:00 -4°C° 0 mm 6 m/s 744 mmHg 90%
    07:00 -6°C° 0 mm 8 m/s 744 mmHg 89%
    08:00 -5°C° 0.1 mm 8 m/s 744 mmHg 90%
    09:00 -5°C° 0.1 mm 8 m/s 743 mmHg 90%
    10:00 -6°C° 0 mm 8 m/s 743 mmHg 91%
    11:00 -5°C° 0.4 mm 8 m/s 743 mmHg 91%
    12:00 -5°C° 0.4 mm 8 m/s 743 mmHg 90%
    13:00 -3°C° 0.4 mm 7 m/s 743 mmHg 90%
    14:00 -3°C° 0.2 mm 7 m/s 743 mmHg 90%
    15:00 -3°C° 0.2 mm 7 m/s 743 mmHg 89%
    16:00 -3°C° 0.2 mm 7 m/s 743 mmHg 88%
    17:00 -3°C° 0.1 mm 7 m/s 743 mmHg 88%
    18:00 -3°C° 0.1 mm 6 m/s 743 mmHg 88%
    19:00 -3°C° 0.1 mm 6 m/s 744 mmHg 89%
    20:00 -4°C° 0.2 mm 6 m/s 745 mmHg 89%
    21:00 -6°C° 0.2 mm 7 m/s 745 mmHg 90%
    22:00 -7°C° 0.2 mm 7 m/s 746 mmHg 91%
    23:00 -8°C° 0.1 mm 6 m/s 747 mmHg 90%

    Mâine, 23 Februarie, Sâmbătă

    Timp Temperatura Precipitaţii Vânt Presiune Umiditate
    00:00 -10°C° 0.1 mm 5 m/s 748 mmHg 89%
    01:00 -10°C° 0.1 mm 4 m/s 749 mmHg 88%
    02:00 -11°C° 0 mm 4 m/s 749 mmHg 89%
    03:00 -14°C° 0 mm 4 m/s 750 mmHg 91%
    04:00 -15°C° 0 mm 4 m/s 750 mmHg 92%
    05:00 -15°C° 0 mm 4 m/s 750 mmHg 93%
    06:00 -15°C° 0 mm 3 m/s 751 mmHg 94%
    07:00 -15°C° 0 mm 3 m/s 751 mmHg 95%
    08:00 -14°C° 0 mm 3 m/s 751 mmHg 94%
    09:00 -14°C° 0 mm 4 m/s 751 mmHg 94%
    10:00 -12°C° 0 mm 4 m/s 751 mmHg 93%
    11:00 -12°C° 0 mm 4 m/s 751 mmHg 93%
    12:00 -11°C° 0 mm 4 m/s 752 mmHg 92%
    13:00 -10°C° 0 mm 4 m/s 752 mmHg 92%
    14:00 -10°C° 0.1 mm 4 m/s 752 mmHg 92%
    15:00 -9°C° 0.1 mm 4 m/s 752 mmHg 91%
    16:00 -9°C° 0.1 mm 4 m/s 752 mmHg 91%
    17:00 -9°C° 0.1 mm 4 m/s 752 mmHg 92%
    18:00 -9°C° 0.1 mm 4 m/s 752 mmHg 93%
    19:00 -8°C° 0.1 mm 3 m/s 752 mmHg 94%
    20:00 -10°C° 0.1 mm 4 m/s 753 mmHg 94%
    21:00 -10°C° 0.1 mm 4 m/s 753 mmHg 94%
    22:00 -11°C° 0.1 mm 4 m/s 753 mmHg 94%
    23:00 -11°C° 0.1 mm 4 m/s 753 mmHg 94%

    Poimâine, 24 Februarie, Duminică

    Timp Temperatura Precipitaţii Vânt Presiune Umiditate
    00:00 -12°C° 0.1 mm 4 m/s 754 mmHg 94%
    01:00 -12°C° 0.1 mm 4 m/s 754 mmHg 94%
    02:00 -14°C° 0 mm 4 m/s 754 mmHg 94%
    03:00 -15°C° 0 mm 4 m/s 754 mmHg 95%
    04:00 -16°C° 0 mm 4 m/s 754 mmHg 95%
    05:00 -18°C° 0 mm 4 m/s 754 mmHg 96%
    06:00 -21°C° 0 mm 3 m/s 755 mmHg 96%
    07:00 -23°C° 0 mm 3 m/s 755 mmHg 97%
    08:00 -22°C° 0 mm 3 m/s 755 mmHg 94%
    09:00 -21°C° 0 mm 3 m/s 755 mmHg 90%
    10:00 -21°C° 0 mm 3 m/s 755 mmHg 87%
    11:00 -18°C° 0 mm 3 m/s 755 mmHg 86%
    12:00 -17°C° 0 mm 3 m/s 754 mmHg 86%
    13:00 -17°C° 0 mm 4 m/s 754 mmHg 85%
    14:00 -16°C° 0 mm 4 m/s 754 mmHg 86%
    15:00 -15°C° 0 mm 4 m/s 754 mmHg 86%
    16:00 -15°C° 0 mm 4 m/s 754 mmHg 86%
    17:00 -15°C° 0 mm 4 m/s 753 mmHg 88%
    18:00 -16°C° 0 mm 4 m/s 753 mmHg 89%
    19:00 -16°C° 0 mm 4 m/s 753 mmHg 90%
    20:00 -16°C° 0.1 mm 4 m/s 753 mmHg 91%
    21:00 -16°C° 0.1 mm 4 m/s 753 mmHg 92%
    22:00 -15°C° 0.1 mm 4 m/s 753 mmHg 93%
    23:00 -16°C° 0.1 mm 4 m/s 753 mmHg 93%

    25 Februarie, Luni

    Timp Temperatura Precipitaţii Vânt Presiune Umiditate
    00:00 -15°C° 0.1 mm 3 m/s 752 mmHg 94%
    01:00 -15°C° 0.1 mm 3 m/s 752 mmHg 95%
    02:00 -15°C° 0 mm 3 m/s 752 mmHg 95%
    03:00 -16°C° 0 mm 3 m/s 752 mmHg 95%
    04:00 -16°C° 0 mm 3 m/s 752 mmHg 96%
    05:00 -16°C° 0 mm 3 m/s 751 mmHg 96%
    06:00 -16°C° 0 mm 3 m/s 751 mmHg 96%
    07:00 -16°C° 0 mm 3 m/s 750 mmHg 96%
    08:00 -16°C° 0.1 mm 3 m/s 750 mmHg 96%
    09:00 -16°C° 0.1 mm 4 m/s 750 mmHg 95%
    10:00 -16°C° 0.1 mm 4 m/s 750 mmHg 95%
    11:00 -15°C° 0 mm 4 m/s 749 mmHg 95%
    12:00 -14°C° 0 mm 4 m/s 749 mmHg 94%
    13:00 -13°C° 0 mm 5 m/s 748 mmHg 93%
    14:00 -12°C° 0 mm 4 m/s 748 mmHg 93%
    15:00 -11°C° 0 mm 4 m/s 748 mmHg 92%
    16:00 -11°C° 0 mm 4 m/s 747 mmHg 92%
    17:00 -12°C° 0 mm 4 m/s 747 mmHg 92%
    18:00 -12°C° 0 mm 4 m/s 747 mmHg 93%
    19:00 -14°C° 0 mm 4 m/s 747 mmHg 93%
    20:00 -13°C° 0 mm 3 m/s 746 mmHg 94%
    21:00 -13°C° 0 mm 3 m/s 746 mmHg 94%
    22:00 -14°C° 0 mm 3 m/s 746 mmHg 95%
    23:00 -14°C° 0 mm 3 m/s 745 mmHg 95%

    26 Februarie, Marţi

    Timp Temperatura Precipitaţii Vânt Presiune Umiditate
    00:00 -14°C° 0 mm 3 m/s 745 mmHg 95%
    01:00 -14°C° 0 mm 3 m/s 745 mmHg 95%
    02:00 -15°C° 0 mm 3 m/s 744 mmHg 95%
    03:00 -15°C° 0 mm 3 m/s 744 mmHg 96%
    04:00 -14°C° 0 mm 2 m/s 744 mmHg 96%
    05:00 -14°C° 0 mm 2 m/s 744 mmHg 96%
    06:00 -14°C° 0 mm 2 m/s 744 mmHg 96%
    07:00 -16°C° 0 mm 3 m/s 744 mmHg 96%
    08:00 -15°C° 0 mm 3 m/s 743 mmHg 95%
    09:00 -15°C° 0 mm 3 m/s 743 mmHg 95%
    10:00 -14°C° 0 mm 3 m/s 743 mmHg 94%
    11:00 -12°C° 0 mm 2 m/s 743 mmHg 93%
    12:00 -10°C° 0 mm 2 m/s 743 mmHg 92%
    13:00 -10°C° 0 mm 2 m/s 743 mmHg 91%
    14:00 -10°C° 0 mm 2 m/s 742 mmHg 91%
    15:00 -9°C° 0 mm 2 m/s 742 mmHg 91%
    16:00 -9°C° 0 mm 2 m/s 742 mmHg 91%
    17:00 -9°C° 0 mm 1 m/s 742 mmHg 91%
    18:00 -10°C° 0 mm 1 m/s 742 mmHg 92%
    19:00 -11°C° 0 mm 0 m/s 742 mmHg 93%
    20:00 -12°C° 0 mm 0 m/s 742 mmHg 94%
    21:00 -13°C° 0 mm 0 m/s 742 mmHg 95%
    22:00 -14°C° 0 mm 0 m/s 742 mmHg 96%
    23:00 -15°C° 0 mm 0 m/s 743 mmHg 96%

    27 Februarie, Miercuri

    Timp Temperatura Precipitaţii Vânt Presiune Umiditate
    00:00 -15°C° 0 mm 1 m/s 743 mmHg 96%
    01:00 -15°C° 0 mm 1 m/s 743 mmHg 96%
    02:00 -16°C° 0 mm 1 m/s 743 mmHg 96%
    03:00 -16°C° 0 mm 1 m/s 743 mmHg 96%
    04:00 -16°C° 0 mm 1 m/s 743 mmHg 96%
    05:00 -16°C° 0 mm 1 m/s 743 mmHg 96%
    06:00 -16°C° 0 mm 1 m/s 743 mmHg 95%
    07:00 -16°C° 0 mm 1 m/s 743 mmHg 94%
    08:00 -15°C° 0 mm 1 m/s 744 mmHg 93%
    09:00 -13°C° 0 mm 1 m/s 744 mmHg 91%
    10:00 -12°C° 0 mm 1 m/s 744 mmHg 90%
    11:00 -11°C° 0 mm 1 m/s 744 mmHg 89%
    12:00 -10°C° 0 mm 1 m/s 744 mmHg 87%
    13:00 -9°C° 0 mm 1 m/s 744 mmHg 86%
    14:00 -8°C° 0 mm 1 m/s 743 mmHg 88%
    15:00 -8°C° 0 mm 1 m/s 743 mmHg 89%
    16:00 -8°C° 0 mm 1 m/s 743 mmHg 91%
    17:00 -10°C° 0 mm 1 m/s 743 mmHg 92%
    18:00 -12°C° 0 mm 1 m/s 743 mmHg 93%
    19:00 -13°C° 0 mm 1 m/s 743 mmHg 94%
    20:00 -14°C° 0 mm 1 m/s 743 mmHg 95%
    21:00 -14°C° 0 mm 1 m/s 743 mmHg 96%
    22:00 -15°C° 0 mm 1 m/s 743 mmHg 96%
    23:00 -15°C° 0 mm 1 m/s 742 mmHg 97%
    Arată mai mult